�N����,����,�~����,�C��,���x,�C��,����,���ϕ���,�ő�u�ԕ���,�ő厞����,���˗�,�I�_���x,�n�����x,�ő啗���N��,DTYPE
"21/03/30","00:10",0.0,12.1,90.2,1005.0,290.1,1.0,2.0,302.3,0.00,10.6,130.0,"00:03:44",1
"21/03/30","00:20",0.0,12.2,90.6,1004.8,293.4,1.7,2.2,302.5,0.00,10.7,130.0,"00:14:14",1
"21/03/30","00:30",0.0,12.1,90.9,1004.8,293.7,1.7,2.4,310.9,0.00,10.7,130.0,"00:21:20",1
"21/03/30","00:40",0.0,12.0,91.2,1005.0,293.5,1.6,2.1,304.5,0.00,10.7,130.0,"00:37:44",1
"21/03/30","00:50",0.0,11.9,91.5,1004.5,301.8,1.8,2.4,309.2,0.00,10.6,130.0,"00:42:24",1
"21/03/30","01:00",0.0,11.9,91.7,1004.5,296.5,1.7,2.1,303.1,0.00,10.6,130.0,"00:56:02",1
"21/03/30","01:10",0.0,11.9,92.0,1004.5,309.7,2.0,2.8,315.2,0.00,10.7,130.0,"01:09:12",1
"21/03/30","01:20",0.0,11.9,92.1,1004.8,288.0,1.5,2.0,294.2,0.00,10.7,130.0,"01:16:32",1
"21/03/30","01:30",0.0,11.8,92.4,1004.8,285.0,1.5,1.9,297.6,0.00,10.6,130.0,"01:26:48",1
"21/03/30","01:40",0.0,11.8,92.6,1004.8,309.0,2.0,2.5,316.8,0.00,10.7,130.0,"01:32:16",1
"21/03/30","01:50",0.0,11.6,92.7,1004.3,326.7,1.5,2.1,318.7,0.00,10.5,130.0,"01:42:48",1
"21/03/30","02:00",0.0,11.3,92.8,1004.3,327.5,1.5,2.0,321.2,0.00,10.2,130.0,"01:55:20",1
"21/03/30","02:10",0.0,11.1,93.0,1004.3,310.1,1.0,1.6,332.6,0.00,10.1,130.0,"02:00:08",1
"21/03/30","02:20",0.0,10.8,93.3,1004.3,307.0,1.1,1.9,335.1,0.00,9.8,130.0,"02:18:00",1
"21/03/30","02:30",0.0,10.7,93.5,1004.3,326.8,1.5,1.9,325.1,0.00,9.7,130.0,"02:29:52",1
"21/03/30","02:40",0.0,10.7,93.7,1004.3,325.5,1.3,1.8,325.4,0.00,9.8,130.0,"02:30:16",1
"21/03/30","02:50",0.0,10.6,93.8,1004.3,315.3,1.7,2.2,317.9,0.00,9.7,130.0,"02:42:08",1
"21/03/30","03:00",0.0,10.7,94.0,1004.1,298.8,1.8,2.2,312.2,0.00,9.8,130.0,"02:55:44",1
"21/03/30","03:10",0.0,10.8,94.1,1004.3,295.7,1.8,2.4,297.7,0.00,9.9,130.0,"03:07:04",1
"21/03/30","03:20",0.0,10.8,94.2,1004.1,305.2,1.8,2.2,320.9,0.00,9.9,130.0,"03:12:56",1
"21/03/30","03:30",0.0,10.6,94.3,1004.1,291.2,1.3,1.8,279.3,0.00,9.8,130.0,"03:27:04",1
"21/03/30","03:40",0.0,10.6,94.5,1004.1,303.1,1.5,2.1,322.7,0.00,9.8,130.0,"03:38:08",1
"21/03/30","03:50",0.0,10.4,94.6,1004.5,321.2,1.8,2.2,328.6,0.00,9.6,130.0,"03:47:52",1
"21/03/30","04:00",0.0,10.1,94.9,1004.3,323.3,1.7,2.6,323.5,0.00,9.4,130.0,"03:50:40",1
"21/03/30","04:10",0.0,10.1,94.9,1004.3,305.4,1.2,2.0,322.9,0.00,9.4,130.0,"04:02:40",1
"21/03/30","04:20",0.0,10.1,95.1,1004.3,302.1,0.3,1.7,310.8,0.00,9.4,130.0,"04:10:02",1
"21/03/30","04:30",0.0,9.9,95.1,1004.3,322.3,1.6,2.7,317.5,0.00,9.2,130.0,"04:27:12",1
"21/03/30","04:40",0.0,9.7,95.3,1004.1,322.8,1.8,2.2,330.1,0.00,9.0,130.0,"04:32:24",1
"21/03/30","04:50",0.0,9.7,95.5,1004.3,319.6,1.8,2.6,336.1,0.00,9.1,130.0,"04:46:16",1
"21/03/30","05:00",0.0,9.7,95.5,1004.3,293.6,1.3,2.1,317.2,0.00,9.1,130.0,"04:51:20",1
"21/03/30","05:10",0.0,9.6,95.6,1004.3,289.1,1.1,1.9,319.8,0.00,9.0,130.0,"05:08:56",1
"21/03/30","05:20",0.0,9.5,95.7,1004.8,298.2,1.2,1.6,309.8,0.00,8.9,130.0,"05:10:32",1
"21/03/30","05:30",0.0,9.7,95.8,1004.5,299.8,1.7,2.6,312.4,0.00,9.1,130.0,"05:28:56",1
"21/03/30","05:40",0.0,9.9,96.0,1004.8,303.0,2.1,2.4,310.2,0.00,9.3,130.0,"05:32:56",1
"21/03/30","05:50",0.0,10.1,96.0,1005.0,305.7,2.0,2.9,302.7,0.00,9.5,130.0,"05:47:52",1
"21/03/30","06:00",0.0,10.0,96.0,1005.0,325.9,2.1,3.1,328.9,0.00,9.4,130.0,"05:51:12",1
"21/03/30","06:10",0.0,9.8,96.2,1005.0,323.6,1.6,2.4,335.0,0.00,9.3,130.0,"06:04:08",1
"21/03/30","06:20",0.0,9.8,96.3,1005.2,309.5,1.2,2.5,316.5,0.00,9.3,130.0,"06:16:48",1
"21/03/30","06:30",0.0,9.7,96.4,1005.2,319.6,1.7,2.4,328.0,0.00,9.2,130.0,"06:25:28",1
"21/03/30","06:40",0.0,9.6,96.6,1005.2,321.6,2.2,2.8,323.2,0.00,9.1,130.0,"06:31:04",1
"21/03/30","06:50",0.0,10.1,96.6,1005.5,300.8,2.0,2.2,300.7,0.01,9.6,130.0,"06:44:40",1
"21/03/30","07:00",0.0,10.4,96.5,1005.5,290.3,1.7,2.2,298.4,0.01,9.9,130.0,"06:53:36",1
"21/03/30","07:10",0.0,10.5,96.6,1005.5,316.5,2.0,2.7,323.3,0.03,10.0,130.0,"07:02:16",1
"21/03/30","07:20",0.0,10.9,96.7,1005.5,284.7,1.7,2.2,273.2,0.05,10.4,130.0,"07:17:28",1
"21/03/30","07:30",0.0,11.5,96.7,1006.0,288.7,1.8,2.7,304.2,0.07,11.0,130.0,"07:26:40",1
"21/03/30","07:40",0.0,12.0,96.5,1006.0,280.9,1.6,2.2,267.4,0.08,11.5,130.0,"07:38:24",1
"21/03/30","07:50",0.0,12.4,96.5,1006.0,285.2,1.6,2.2,304.8,0.10,11.9,130.0,"07:43:52",1
"21/03/30","08:00",0.0,13.1,96.4,1006.2,301.3,1.7,2.5,297.5,0.13,12.6,130.0,"07:55:04",1
"21/03/30","08:10",0.0,13.3,95.9,1006.4,300.8,2.0,2.9,304.5,0.15,12.7,130.0,"08:07:28",1
"21/03/30","08:20",0.0,13.7,95.8,1006.2,303.1,2.1,3.1,310.0,0.18,13.1,130.0,"08:12:16",1
"21/03/30","08:30",0.0,14.2,95.2,1006.4,283.9,1.3,2.4,308.2,0.19,13.5,130.0,"08:23:52",1
"21/03/30","08:40",0.0,14.3,94.6,1006.4,278.0,1.6,2.6,276.6,0.20,13.5,130.0,"08:30:08",1
"21/03/30","08:50",0.0,14.9,94.0,1006.7,285.3,1.3,2.4,312.9,0.25,14.0,130.0,"08:40:32",1
"21/03/30","09:00",0.0,15.7,92.9,1006.2,308.2,0.5,1.3,209.3,0.27,14.6,130.0,"08:55:28",1
"21/03/30","09:10",0.0,16.4,91.0,1006.4,284.5,0.7,1.6,275.7,0.29,15.0,130.0,"09:00:40",1
"21/03/30","09:20",0.0,17.0,88.4,1005.7,17.7,0.2,0.9,118.1,0.32,15.1,130.0,"09:11:36",1
"21/03/30","09:30",0.0,17.9,85.7,1005.7,282.1,0.3,1.3,194.4,0.34,15.5,130.0,"09:26:16",1
"21/03/30","09:40",0.0,17.9,80.2,1005.7,172.8,0.7,1.9,112.9,0.37,14.5,130.0,"09:38:40",1
"21/03/30","09:50",0.0,18.1,74.8,1005.2,60.4,1.0,1.8,355.8,0.34,13.6,130.0,"09:47:52",1
"21/03/30","10:00",0.0,18.6,70.8,1005.2,142.2,1.2,3.1,105.7,0.45,13.2,130.0,"09:57:12",1
"21/03/30","10:10",0.0,19.0,68.3,1004.8,290.3,0.7,1.7,172.8,0.34,13.1,130.0,"10:00:08",1
"21/03/30","10:20",0.0,19.4,66.3,1004.5,194.7,1.0,3.6,223.3,0.41,13.0,130.0,"10:18:32",1
"21/03/30","10:30",0.0,19.3,65.3,1004.3,188.4,1.3,2.4,187.5,0.46,12.7,130.0,"10:28:40",1
"21/03/30","10:40",0.0,19.5,64.6,1004.5,161.8,1.6,4.0,151.6,0.41,12.7,130.0,"10:32:24",1
"21/03/30","10:50",0.0,19.7,64.8,1004.3,160.4,1.2,2.7,127.0,0.39,12.9,130.0,"10:46:16",1
"21/03/30","11:00",0.0,20.0,64.3,1004.1,143.9,1.6,3.7,107.1,0.42,13.1,130.0,"10:54:48",1
"21/03/30","11:10",0.0,20.5,63.5,1004.1,169.8,1.5,3.5,122.3,0.50,13.4,130.0,"11:02:48",1
"21/03/30","11:20",0.0,20.7,60.1,1003.6,167.4,1.7,4.0,140.4,0.52,12.7,130.0,"11:16:32",1
"21/03/30","11:30",0.0,20.7,60.8,1003.4,187.5,1.6,4.4,119.7,0.51,12.9,130.0,"11:21:28",1
"21/03/30","11:40",0.0,21.2,60.5,1003.4,180.8,1.6,3.9,146.7,0.51,13.3,130.0,"11:36:24",1
"21/03/30","11:50",0.0,20.8,59.5,1003.1,124.7,1.7,3.6,101.6,0.46,12.7,130.0,"11:45:52",1
"21/03/30","12:00",0.0,21.0,59.2,1003.1,160.4,1.5,3.6,147.3,0.42,12.8,130.0,"11:58:56",1
"21/03/30","12:10",0.0,20.9,59.3,1003.4,133.2,1.6,3.6,117.2,0.34,12.7,130.0,"12:05:20",1
"21/03/30","12:20",0.0,21.4,58.4,1002.6,173.9,0.8,2.5,119.3,0.41,12.9,130.0,"12:18:40",1
"21/03/30","12:30",0.0,21.7,57.4,1002.6,170.7,1.8,3.4,197.9,0.46,13.0,130.0,"12:25:20",1
"21/03/30","12:40",0.0,22.0,55.1,1002.6,146.5,1.6,3.1,122.1,0.52,12.6,130.0,"12:37:12",1
"21/03/30","12:50",0.0,22.1,55.5,1002.4,146.3,2.1,4.4,137.4,0.50,12.8,130.0,"12:46:16",1
"21/03/30","13:00",0.0,22.3,54.7,1002.2,175.5,2.2,4.1,136.4,0.53,12.8,130.0,"12:53:44",1
"21/03/30","13:10",0.0,22.5,53.5,1001.9,181.4,2.1,4.2,168.9,0.47,12.6,130.0,"13:06:08",1
"21/03/30","13:20",0.0,22.6,53.0,1001.7,167.3,2.1,4.9,220.6,0.41,12.6,130.0,"13:15:04",1
"21/03/30","13:30",0.0,22.5,50.1,1001.7,140.8,2.2,4.1,116.2,0.47,11.6,130.0,"13:29:44",1
"21/03/30","13:40",0.0,23.1,50.8,1001.9,190.0,2.1,4.2,182.4,0.44,12.4,130.0,"13:31:12",1
"21/03/30","13:50",0.0,22.7,48.5,1001.7,214.8,1.7,3.5,218.6,0.36,11.3,130.0,"13:44:00",1
"21/03/30","14:00",0.0,23.1,49.2,1001.2,181.9,1.5,3.7,181.3,0.36,11.9,130.0,"13:58:56",1
"21/03/30","14:10",0.0,22.4,49.0,1001.5,158.0,1.8,3.4,146.1,0.22,11.2,130.0,"14:04:16",1
"21/03/30","14:20",0.0,22.0,49.2,1001.7,154.7,2.0,4.0,188.8,0.17,10.9,130.0,"14:10:48",1
"21/03/30","14:30",0.0,22.3,50.5,1001.2,148.5,1.5,3.5,120.7,0.18,11.6,130.0,"14:20:32",1
"21/03/30","14:40",0.0,22.4,49.7,1001.2,167.7,1.7,3.3,147.3,0.19,11.4,130.0,"14:31:52",1
"21/03/30","14:50",0.0,22.3,49.6,1001.5,194.8,1.2,2.9,169.7,0.14,11.3,130.0,"14:45:20",1
"21/03/30","15:00",0.0,22.9,47.8,1001.5,278.9,0.7,2.2,174.0,0.22,11.3,130.0,"14:51:28",1
"21/03/30","15:10",0.0,23.0,48.2,1001.2,254.8,0.8,2.5,232.9,0.17,11.5,130.0,"15:01:52",1
"21/03/30","15:20",0.0,23.2,48.3,1001.5,234.3,0.5,1.3,184.4,0.19,11.7,130.0,"15:19:04",1
"21/03/30","15:30",0.0,22.4,47.7,1001.2,193.4,1.0,2.1,207.6,0.09,10.8,130.0,"15:23:36",1
"21/03/30","15:40",0.0,22.1,48.5,1001.5,251.9,0.7,1.9,222.1,0.06,10.8,130.0,"15:30:56",1
"21/03/30","15:50",0.0,22.0,47.5,1001.7,298.5,1.2,2.9,346.7,0.07,10.4,130.0,"15:42:08",1
"21/03/30","16:00",0.0,22.0,47.7,1001.7,261.0,1.5,2.9,231.2,0.09,10.4,130.0,"15:50:16",1
"21/03/30","16:10",0.0,22.2,48.9,1001.7,281.0,1.5,2.8,234.0,0.09,11.0,130.0,"16:00:48",1
"21/03/30","16:20",0.0,21.9,51.0,1001.9,302.8,1.5,2.9,354.5,0.05,11.4,130.0,"16:19:12",1
"21/03/30","16:30",0.0,20.8,56.4,1002.2,325.3,3.1,8.2,347.1,0.05,11.9,130.0,"16:23:52",1
"21/03/30","16:40",0.0,19.7,58.9,1002.6,346.0,3.2,6.5,335.0,0.01,11.5,130.0,"16:36:16",1
"21/03/30","16:50",0.0,19.4,60.3,1002.9,0.6,2.7,5.5,351.4,0.00,11.6,130.0,"16:44:40",1
"21/03/30","17:00",0.0,19.2,61.7,1002.6,347.9,1.7,4.7,347.2,0.00,11.7,130.0,"16:56:00",1
"21/03/30","17:10",0.0,19.1,61.6,1003.1,350.4,1.7,3.6,348.6,0.01,11.6,130.0,"17:02:16",1
"21/03/30","17:20",0.0,19.1,61.8,1003.1,355.5,2.2,5.1,346.9,0.01,11.6,130.0,"17:15:28",1
"21/03/30","17:30",0.0,18.9,62.4,1003.6,359.4,1.8,3.4,340.2,0.01,11.6,130.0,"17:25:36",1
"21/03/30","17:40",0.0,18.3,63.9,1003.8,341.4,3.1,6.0,335.9,0.01,11.4,130.0,"17:36:00",1
"21/03/30","17:50",0.0,17.9,65.4,1003.8,346.5,2.8,7.8,346.8,0.00,11.4,130.0,"17:46:40",1
"21/03/30","18:00",0.0,17.5,66.6,1003.6,338.8,2.6,5.5,56.3,0.00,11.3,130.0,"17:59:52",1
"21/03/30","18:10",0.0,17.0,68.1,1004.3,340.8,3.4,6.6,315.4,0.00,11.1,130.0,"18:06:16",1
"21/03/30","18:20",0.0,16.6,69.3,1004.5,348.2,2.6,5.5,337.8,0.00,11.0,130.0,"18:14:08",1
"21/03/30","18:30",0.0,16.2,70.2,1005.0,352.4,3.6,7.9,338.8,0.00,10.8,130.0,"18:29:04",1
"21/03/30","18:40",0.0,15.4,70.8,1005.2,346.2,5.0,9.0,342.9,0.00,10.2,130.0,"18:30:16",1
"21/03/30","18:50",0.0,15.1,71.3,1005.2,344.4,4.4,6.8,336.7,0.00,10.0,130.0,"18:48:18",1
"21/03/30","19:00",0.0,14.7,71.3,1005.5,341.9,4.1,7.0,342.8,0.00,9.6,130.0,"18:55:08",1
"21/03/30","19:10",0.0,14.3,70.8,1005.5,339.5,4.9,8.3,339.7,0.00,9.1,130.0,"19:05:44",1
"21/03/30","19:20",0.0,14.2,69.5,1005.7,333.6,6.6,10.8,337.7,0.00,8.7,130.0,"19:17:12",1
"21/03/30","19:30",0.0,14.0,68.0,1006.0,336.8,5.4,10.6,339.9,0.00,8.2,130.0,"19:23:22",1
"21/03/30","19:40",0.0,13.8,67.3,1005.5,335.4,3.5,10.6,343.3,0.00,7.9,130.0,"19:36:10",1
"21/03/30","19:50",0.0,13.6,66.7,1006.2,336.2,5.5,10.3,343.2,0.00,7.6,130.0,"19:42:04",1
"21/03/30","20:00",0.0,13.4,66.0,1006.0,336.1,5.6,9.4,340.6,0.00,7.2,130.0,"19:55:02",1
"21/03/30","20:10",0.0,13.3,64.6,1006.2,335.8,5.9,10.1,355.2,0.00,6.8,130.0,"20:03:12",1
"21/03/30","20:20",0.0,13.2,63.6,1006.7,338.0,4.6,9.6,330.0,0.00,6.5,130.0,"20:13:26",1
"21/03/30","20:30",0.0,13.2,63.0,1006.4,333.9,4.1,8.2,338.4,0.00,6.4,130.0,"20:25:30",1
"21/03/30","20:40",0.0,13.1,62.5,1006.7,337.6,4.0,6.4,322.8,0.00,6.1,130.0,"20:39:30",1
"21/03/30","20:50",0.0,13.0,62.4,1007.1,330.6,3.5,6.7,319.7,0.00,6.0,130.0,"20:48:32",1
"21/03/30","21:00",0.0,13.0,61.6,1007.1,336.2,3.5,7.7,342.6,0.00,5.8,130.0,"20:57:28",1
"21/03/30","21:10",0.0,12.9,60.7,1007.4,333.5,3.2,5.5,348.8,0.00,5.5,130.0,"21:04:38",1
"21/03/30","21:20",0.0,12.7,59.5,1007.4,333.7,2.2,5.4,332.5,0.00,5.1,130.0,"21:18:30",1
"21/03/30","21:30",0.0,12.8,57.4,1007.6,326.2,3.1,5.1,330.9,0.00,4.6,130.0,"21:28:04",1
"21/03/30","21:40",0.0,12.7,56.3,1007.6,333.8,2.2,5.1,332.3,0.00,4.3,130.0,"21:34:46",1
"21/03/30","21:50",0.0,12.6,55.9,1007.6,328.5,1.8,3.7,311.9,0.00,4.1,130.0,"21:43:58",1
"21/03/30","22:00",0.0,12.6,55.0,1007.8,343.1,2.3,5.7,345.7,0.00,3.8,130.0,"21:50:52",1
"21/03/30","22:10",0.0,12.6,53.9,1008.1,343.7,2.3,5.5,326.0,0.00,3.6,130.0,"22:09:06",1
"21/03/30","22:20",0.0,12.5,53.8,1007.6,347.8,2.7,4.7,337.8,0.00,3.4,130.0,"22:17:36",1
"21/03/30","22:30",0.0,12.3,53.6,1007.8,343.5,2.2,4.7,337.3,0.00,3.2,130.0,"22:29:16",1
"21/03/30","22:40",0.0,12.1,55.0,1007.4,331.8,2.0,4.3,342.7,0.00,3.4,130.0,"22:35:44",1
"21/03/30","22:50",0.0,11.8,57.5,1007.1,329.5,2.3,3.4,341.0,0.00,3.7,130.0,"22:43:08",1
"21/03/30","23:00",0.0,11.2,64.3,1007.1,298.3,2.0,2.7,322.5,0.00,4.8,130.0,"22:58:34",1
"21/03/30","23:10",0.0,10.6,66.6,1007.4,315.1,2.0,4.5,318.8,0.00,4.7,130.0,"23:01:46",1
"21/03/30","23:20",0.0,10.6,65.0,1007.6,322.1,1.6,3.2,327.3,0.00,4.3,130.0,"23:19:46",1
"21/03/30","23:30",0.0,11.4,60.6,1007.6,339.9,2.1,4.8,339.1,0.00,4.1,130.0,"23:21:42",1
"21/03/30","23:40",0.0,11.2,60.2,1007.6,342.2,2.0,3.9,336.5,0.00,3.8,130.0,"23:37:42",1
"21/03/30","23:50",0.0,11.0,61.1,1007.6,335.3,1.2,2.7,315.2,0.00,3.8,130.0,"23:49:08",1
"21/03/30","24:00",0.0,10.1,65.7,1007.8,313.5,2.3,3.6,329.6,0.00,4.0,130.0,"23:51:20",1
